Location: Baller�as
(41.9020°N, 0.1554°W)
Time: 00:02:55
(UTC+00:00)

MOS 1-B Rocket - Pass Details

Date: 10 August 2020
Orbit: 890 x 1606 km, 99.1° (Epoch: 22 September)

Event Time Altitude Azimuth Distance (km) Brightness Sun altitude
Rises 22:31:10 0° 15° (NNE) 3,557 7.6 -28.9°
Reaches altitude 10° 22:33:35 10° 16° (NNE) 2,582 6.8 -29.1°
Enters shadow 22:38:36 70° 44° (NE) 950 3.9 -29.4°
